Showing default

HULIANWANG DIGUI-144, 67442

Orbit data source: Space-Track

HULIANWANG DIGUI-144, 67442 is a payload satellite owned by Zhongguo Xingwang (CN) in LEO that was launched on Tue, 13 Jan 2026 UTC via a CHANG ZHENG 8A launch vehicle from the Wenchang Satellite Launch Center (WSC). Payload-class satellites include a variety of spacecraft equipped with specific instruments for various scientific and technological missions. These include communications satellites like Starlink; space stations such as the ISS; scientific satellites like the Hubble; Earth observation satellites from companies like Planet Labs, Umbra, and HawkEye 360; GPS; miniature CubeSats for education and research; and military/defense satellites.

Loading next visibility...
Identifier
67442, 2026-007H
Orbit
LEO
Country
Flag of CNCN / PRC
Related business
Manufacturer
CAST
Mission
Operational spacecraft
Bus & Motor
XINGWANG C, Unknown motor
Mass
~700 kg wet, ~700 kg dry
Launch date (UTC)
2026-01-13 (1 month ago)
Launch vehicle
CHANG ZHENG 8A
Launch site
Wenchang Satellite Launch Center (WSC)
Object type
Payload
Rocket body
Debris
Shape & HBR
Unknown shape, 14.5 m
Radar Cross Section
RCS unknown

Expand to show TLE details & history
Last TLE update: 2 days ago

TLE from 2 days ago
0 HULIANWANG DIGUI-144
1 67442U 26007H   26047.58622986 -.00000054  00000-0  10342-3 0  9996
2 67442  50.0116 161.0354 0002477 163.1490 196.9480 13.63751319  4709
Epoch: 2026-02-16T14:04Z
TLE epoch observation values (Epoch: 2026-02-16T14:04:10.259Z)
Latitude
-0.00003°
Longitude
163.41418°
Altitude
1,024.359 km
Speed
7.34 km/s
True Right ascension
10h 44m 08s
True Declination
0° 00' 00"
Sunlit
Object was in full shadow at epoch
Visualization orbit readout
Latitude
Unknown
Longitude
Unknown
Altitude
Unknown
Speed
Unknown
Apparent Right ascension
Unknown
Apparent Declination
Unknown
Sunlit
N/A
Visualization observer readout
Local Sidereal Time
06:17:26
Azimuth
Unknown
Elevation
Unknown
Doppler factor
Unknown
Orbital elements
Apogee altitude
1,024.639 km
Perigee altitude
1,020.973 km
Semi-major axis
7,400.943 km
Eccentricity
0.00025
Inclination
50.0116°
RAAN
161.0354°
Arg. of periapsis
163.149°
True anomaly
196.93973°
Mean anomaly
196.948°
Eccentric anomaly
196.94386°
Mean motion
3.40889 °/min
Orbital period
105.61 mins
BSTAR
0.00010342
Loading maneuver chart data...
Computing Atmospheric mass density...
Loading historical data...
Loading historical data...
Loading historical data...
Loading historical data...
Loading historical data...
Loading historical data...
Loading historical data...

Documentation

Showing up to 5 results
|